Weather History for KMGC - January, 2013

Change the Weather History Date:

Friday, January 18, 2013

  Actual Average (KVPZ) Record (KVPZ)
Temperature  
Mean Temperature 29 °F 23 °F  
Max Temperature 39 °F 31 °F 46 °F (1999)
Min Temperature 19 °F 16 °F 0 °F (2003)
Degree Days  
Heating Degree Days 36 42  
Month to date heating degree days 747  
Since 1 July heating degree days 3149  
Cooling Degree Days 0 0  
Month to date cooling degree days 0  
Year to date cooling degree days 0  
Moisture  
Dew Point 20 °F    
Average Humidity 66    
Maximum Humidity 86    
Minimum Humidity 52    
Precipitation  
Precipitation 0.00 in 0.06 in 0.07 in (2011)
Month to date precipitation 0.98  
Year to date precipitation 0.98  
Sea Level Pressure  
Sea Level Pressure 30.21 in    
Wind  
Wind Speed 10 mph (SSW)    
Max Wind Speed 24 mph    
Max Gust Speed 36 mph    
Visibility 10 miles    
Events      
T = Trace of Precipitation, MM = Missing Value Source: NWS Daily Summary

Daily Weather History Graph

Daily Weather History Graph

Search for Another Location

Airport or City:

Trip Planner

Search our weather history database for the weather conditions in past years. The results will help you decide how hot, cold, wet, or windy it might be!

Date:

Astronomy

Jan. 18, 2013 Rise Set
Actual Time 7:10 AM CST 4:45 PM CST
Civil Twilight 6:39 AM CST 5:16 PM CST
Nautical Twilight 6:05 AM CST 5:50 PM CST
Astronomical Twilight 5:32 AM CST 6:23 PM CST
Moon 10:41 AM CST (1/18) No Moon Set
Length of Visible Light 10h 36m
Length of Day
9h 35m
Waxing Crescent, 47% of the Moon is Illuminated
Jan 18
Waxing Crescent
Jan 18
First Quarter
Jan 26
Full
Feb 3
Last Quarter
Feb 10
New

Hourly Weather History & Observations

Time (CST) Temp. Windchill Dew Point Humidity Pressure Visibility Wind Dir Wind Speed Gust Speed Precip Events Conditions
12:15 AM 21.2 °F 13.6 °F 12.2 °F 68% 30.39 in 10.0 mi SW 5.8 mph - N/A   Mostly Cloudy
12:35 AM 21.2 °F 14.9 °F 12.2 °F 68% 30.41 in 10.0 mi WSW 4.6 mph - N/A   Scattered Clouds
12:55 AM 26.6 °F 19.1 °F 14.0 °F 59% 30.41 in 10.0 mi West 6.9 mph - N/A   Scattered Clouds
1:15 AM 23.0 °F 18.4 °F 12.2 °F 63% 30.41 in 10.0 mi SSW 3.5 mph - N/A   Mostly Cloudy
1:35 AM 21.2 °F 16.4 °F 12.2 °F 68% 30.41 in 10.0 mi South 3.5 mph - N/A   Scattered Clouds
1:55 AM 21.2 °F 14.9 °F 12.2 °F 68% 30.42 in 10.0 mi South 4.6 mph - N/A   Clear
2:15 AM 19.4 °F 12.8 °F 12.2 °F 74% 30.42 in 10.0 mi South 4.6 mph - N/A   Clear
2:35 AM 19.4 °F 12.8 °F 12.2 °F 74% 30.42 in 10.0 mi SSW 4.6 mph - N/A   Clear
2:55 AM 19.4 °F 11.5 °F 12.2 °F 74% 30.42 in 10.0 mi SSW 5.8 mph - N/A   Clear
3:15 AM 21.2 °F 12.6 °F 14.0 °F 74% 30.42 in 10.0 mi SW 6.9 mph - N/A   Clear
3:35 AM 21.2 °F 14.9 °F 14.0 °F 74% 30.42 in 10.0 mi SW 4.6 mph - N/A   Clear
3:55 AM 21.2 °F 14.9 °F 14.0 °F 74% 30.42 in 10.0 mi SW 4.6 mph - N/A   Clear
4:15 AM 21.2 °F 14.9 °F 14.0 °F 74% 30.41 in 10.0 mi SW 4.6 mph - N/A   Clear
4:35 AM 21.2 °F 13.6 °F 15.8 °F 80% 30.42 in 10.0 mi SW 5.8 mph - N/A   Scattered Clouds
4:55 AM 23.0 °F 17.0 °F 15.8 °F 74% 30.41 in 10.0 mi SW 4.6 mph - N/A   Mostly Cloudy
5:15 AM 23.0 °F 18.4 °F 15.8 °F 74% 30.41 in 10.0 mi South 3.5 mph - N/A   Mostly Cloudy
5:35 AM 21.2 °F 16.4 °F 15.8 °F 80% 30.40 in 10.0 mi South 3.5 mph - N/A   Scattered Clouds
5:55 AM 23.0 °F 18.4 °F 15.8 °F 74% 30.40 in 10.0 mi South 3.5 mph - N/A   Mostly Cloudy
6:15 AM 21.2 °F 16.4 °F 17.6 °F 86% 30.41 in 10.0 mi SSW 3.5 mph - N/A   Mostly Cloudy
6:55 AM 23.0 °F 17.0 °F 17.6 °F 80% 30.39 in 10.0 mi South 4.6 mph - N/A   Overcast
7:15 AM 23.0 °F 15.8 °F 15.8 °F 74% 30.40 in 10.0 mi South 5.8 mph - N/A   Overcast
7:35 AM 23.0 °F 15.8 °F 17.6 °F 80% 30.39 in 10.0 mi South 5.8 mph - N/A   Overcast
7:55 AM 23.0 °F 14.7 °F 17.6 °F 80% 30.39 in 10.0 mi South 6.9 mph - N/A   Overcast
8:15 AM 23.0 °F 14.7 °F 17.6 °F 80% 30.38 in 10.0 mi South 6.9 mph - N/A   Mostly Cloudy
8:35 AM 26.6 °F 16.8 °F 17.6 °F 69% 30.38 in 10.0 mi South 10.4 mph - N/A   Scattered Clouds
8:55 AM 26.6 °F 17.5 °F 17.6 °F 69% 30.38 in 10.0 mi South 9.2 mph - N/A   Scattered Clouds
9:15 AM 26.6 °F 17.5 °F 17.6 °F 69% 30.38 in 10.0 mi SSW 9.2 mph 16.1 mph N/A   Scattered Clouds
9:55 AM 30.2 °F 20.8 °F 19.4 °F 64% 30.37 in 10.0 mi South 11.5 mph - N/A   Clear
10:15 AM 32.0 °F 23.6 °F 19.4 °F 60% 30.35 in 10.0 mi South 10.4 mph 21.9 mph N/A   Clear
10:35 AM 32.0 °F 22.5 °F 19.4 °F 60% 30.33 in 10.0 mi South 12.7 mph 19.6 mph N/A   Clear
10:55 AM 32.0 °F 21.6 °F 19.4 °F 60% 30.31 in 10.0 mi South 15.0 mph 23.0 mph N/A   Clear
11:15 AM 32.0 °F 24.2 °F 21.2 °F 64% 30.30 in 10.0 mi South 9.2 mph 21.9 mph N/A   Scattered Clouds
11:35 AM 32.0 °F 22.5 °F 21.2 °F 64% 30.27 in 10.0 mi South 12.7 mph 24.2 mph N/A   Scattered Clouds
11:55 AM 33.8 °F 23.9 °F 21.2 °F 60% 30.25 in 10.0 mi South 15.0 mph 23.0 mph N/A   Scattered Clouds
12:15 PM 33.8 °F 22.8 °F 21.2 °F 60% 30.23 in 10.0 mi South 18.4 mph 28.8 mph N/A   Clear
12:35 PM 35.6 °F 25.9 °F 21.2 °F 56% 30.21 in 10.0 mi SSW 16.1 mph 29.9 mph N/A   Clear
12:55 PM 35.6 °F 23.7 °F 21.2 °F 56% 30.19 in 10.0 mi SSW 24.2 mph 33.4 mph N/A   Clear
1:15 PM 35.6 °F 26.2 °F 23.0 °F 60% 30.17 in 10.0 mi SSW 15.0 mph 28.8 mph N/A   Clear
1:35 PM 37.4 °F 27.8 °F 23.0 °F 56% 30.15 in 10.0 mi SSW 17.3 mph 31.1 mph N/A   Clear
1:55 PM 37.4 °F 26.1 °F 23.0 °F 56% 30.14 in 10.0 mi SSW 24.2 mph 35.7 mph N/A   Clear
2:15 PM 37.4 °F 27.8 °F 23.0 °F 56% 30.12 in 10.0 mi South 17.3 mph 33.4 mph N/A   Clear
2:35 PM 39.2 °F 28.7 °F 23.0 °F 52% 30.11 in 10.0 mi South 23.0 mph 31.1 mph N/A   Clear
2:55 PM 39.2 °F 29.8 °F 23.0 °F 52% 30.10 in 10.0 mi South 18.4 mph 34.5 mph N/A   Clear
3:15 PM 37.4 °F 26.6 °F 23.0 °F 56% 30.08 in 10.0 mi South 21.9 mph 31.1 mph N/A   Clear
3:35 PM 37.4 °F 27.2 °F 23.0 °F 56% 30.07 in 10.0 mi South 19.6 mph 31.1 mph N/A   Clear
3:55 PM 37.4 °F 27.5 °F 23.0 °F 56% 30.06 in 10.0 mi South 18.4 mph 26.5 mph N/A   Clear
4:15 PM 35.6 °F 26.2 °F 23.0 °F 60% 30.05 in 10.0 mi South 15.0 mph 26.5 mph N/A   Clear
4:35 PM 35.6 °F 26.2 °F 23.0 °F 60% 30.04 in 10.0 mi South 15.0 mph 29.9 mph N/A   Clear
4:55 PM 35.6 °F 25.9 °F 23.0 °F 60% 30.02 in 10.0 mi South 16.1 mph 27.6 mph N/A   Clear
5:15 PM 35.6 °F 25.9 °F 23.0 °F 60% 30.02 in 10.0 mi SSW 16.1 mph 28.8 mph N/A   Clear
5:35 PM 35.6 °F 25.2 °F 23.0 °F 60% 30.01 in 10.0 mi South 18.4 mph 26.5 mph N/A   Clear
5:55 PM 35.6 °F 25.9 °F 23.0 °F 60% 30.02 in 10.0 mi SSW 16.1 mph 25.3 mph N/A   Clear
6:15 PM 35.6 °F 24.5 °F 23.0 °F 60% 30.02 in 10.0 mi SSW 20.7 mph 34.5 mph N/A   Clear
6:35 PM 35.6 °F 25.9 °F 23.0 °F 60% 30.02 in 10.0 mi SSW 16.1 mph 29.9 mph N/A   Clear
6:55 PM 35.6 °F 24.2 °F 23.0 °F 60% 30.02 in 10.0 mi SSW 21.9 mph 28.8 mph N/A   Clear
7:15 PM 35.6 °F 25.2 °F 23.0 °F 60% 30.01 in 10.0 mi SSW 18.4 mph 32.2 mph N/A   Clear
7:35 PM 35.6 °F 24.5 °F 24.8 °F 65% 30.00 in 10.0 mi SSW 20.7 mph 35.7 mph N/A   Clear
7:55 PM 35.6 °F 23.7 °F 24.8 °F 65% 30.01 in 10.0 mi SSW 24.2 mph 34.5 mph N/A   Clear
8:15 PM 35.6 °F 24.2 °F 24.8 °F 65% 30.00 in 10.0 mi SSW 21.9 mph 31.1 mph N/A   Clear
8:55 PM 35.6 °F 25.2 °F 26.6 °F 70% 30.00 in 10.0 mi SSW 18.4 mph 27.6 mph N/A   Clear
9:15 PM 35.6 °F 24.5 °F 26.6 °F 70% 30.00 in 10.0 mi SSW 20.7 mph 28.8 mph N/A   Clear
9:35 PM 35.6 °F 25.5 °F 26.6 °F 70% 29.99 in 10.0 mi SSW 17.3 mph 26.5 mph N/A   Clear
9:55 PM 35.6 °F 24.5 °F 26.6 °F 70% 29.99 in 10.0 mi SSW 20.7 mph 28.8 mph N/A   Clear
10:15 PM 35.6 °F 25.2 °F 26.6 °F 70% 29.98 in 10.0 mi SSW 18.4 mph 25.3 mph N/A   Clear
10:35 PM 37.4 °F 27.8 °F 26.6 °F 65% 29.98 in 10.0 mi SSW 17.3 mph 24.2 mph N/A   Clear
10:55 PM 37.4 °F 27.8 °F 26.6 °F 65% 29.98 in 10.0 mi SSW 17.3 mph 26.5 mph N/A   Clear
11:15 PM 37.4 °F 27.8 °F 26.6 °F 65% 29.97 in 10.0 mi SSW 17.3 mph 26.5 mph N/A   Clear
11:35 PM 37.4 °F 27.2 °F 26.6 °F 65% 29.97 in 10.0 mi SW 19.6 mph 26.5 mph N/A   Clear
11:55 PM 37.4 °F 27.5 °F 26.6 °F 65% 29.95 in 10.0 mi SSW 18.4 mph 26.5 mph N/A   Clear